Home > Weather > El Aaiún > Past weeks

Weather for the Past 2 Weeks in El Aaiún, Western Sahara

Now
66 °F

Passing clouds.


Feels Like: 66 °F
Forecast: 63 / 76 °F
Wind: 18 mph from Northeast

Location: Laayoune/Hassan Isl

Current Time: Apr 30, 2016 at 10:36:39 AM

Latest Report: Apr 30, 2016 at 9:00 AM


Visibility: N/A

Pressure: 30.04 "Hg

Humidity: 73%

Dew Point: 57 °F

Location of El AaiúnLocation

Historic Weather in El Aaiún — Graph

°F

El Aaiún Temperature Yesterday

Maximum temperature yesterday: 99 °F (at 4:00 PM)
Minimum temperature yesterday: 61 °F (at 4:00 AM)
Average temperature yesterday: 70 °F

High & Low Weather Summary for the Past Weeks

 TemperatureHumidityPressure
High99 °F (Apr 29, 4:00 PM)100% (Apr 23, 5:00 AM)30.12 "Hg (Apr 23, 5:00 AM)
Low-69 °F (Apr 23, 5:00 AM)16% (Apr 21, 3:00 PM)29.89 "Hg (Apr 25, 5:00 PM)
Average68 °F63%30.00 "Hg
* Reported Apr 15 9:00 AM — Apr 30 9:00 AM, El Aaiún, Weather by CustomWeather, © 2016

Note: Actual official high and low records may vary slightly from our data, if they occured in-between our weather recording intervals... More about our weather records

Advertising

El Aaiún Weather History for the Previous 24 Hours

Scroll right to see more
 ConditionsComfort  
Time TempWeatherWind HumidityBarometerVisibility
9:00 AM
Sat, Apr 30
66 °FPassing clouds.18 mph73%30.04 "HgN/A
8:00 AM63 °FClear.13 mph83%30.04 "Hg10 mi
7:00 AM63 °FClear.18 mph83%30.01 "Hg10 mi
6:00 AM63 °FPartly cloudy.18 mph83%29.98 "Hg5 mi
5:00 AM64 °FPartly cloudy.21 mph78%29.98 "Hg5 mi
4:00 AM64 °FPassing clouds.16 mph73%30.01 "Hg5 mi
3:00 AM64 °FClear.18 mph73%30.01 "Hg10 mi
2:00 AM64 °FClear.18 mph73%30.01 "Hg10 mi
1:00 AM64 °FClear.20 mph73%30.01 "Hg10 mi
12:00 AM66 °FClear.18 mph68%30.01 "Hg10 mi
11:00 PM
Fri, Apr 29
66 °FClear.20 mph68%30.01 "Hg10 mi
10:00 PM66 °FSunny.22 mph68%29.98 "Hg10 mi
9:00 PM68 °FSunny.18 mph64%29.95 "Hg10 mi
8:00 PM70 °FSunny.21 mph57%29.95 "Hg10 mi
7:00 PM75 °FSunny.21 mph47%29.92 "Hg10 mi
6:00 PM75 °FSunny.21 mph50%29.89 "Hg10 mi
5:00 PM79 °FSunny.21 mph39%29.89 "Hg10 mi
4:00 PM99 °FSunny.14 mph18%29.92 "Hg10 mi
3:00 PM81 °FSunny.12 mph34%29.92 "Hg10 mi
2:00 PM79 °FSunny.16 mph37%29.92 "Hg10 mi
1:00 PM77 °FSunny.14 mph42%29.95 "Hg10 mi
12:00 PM73 °FScattered clouds.14 mph50%29.95 "HgN/A
11:00 AM70 °FScattered clouds.18 mph57%29.95 "HgN/A
10:00 AM68 °FScattered clouds.18 mph64%29.92 "HgN/A
Weather by CustomWeather, © 2016

See weather overviewHow to use our weather pages